Погода в Балаганске

Погода в Балаганске : погода сейчас, прогноз погоды и архив. Всё, что Вы хотите узнать о погоде в Балаганске!

Хотите узнать прогноз погоды в Балаганске? Тогда Вам сюда: Погода в Балаганске

Поиск расширенной информации на нашем сайте:

Другие новости

Новости СМИ2

Главная страница сайта

Новости сайта

03.07.2017

Напоминаем, что на нашем специализированном сайте Метеоцентр.Азия вы можете получить высокодетализированные автоматические прогнозы погоды по пунктам России, СНГ и мира в авиационном формате (включающие направление и скорость ветра, видимость, явления погоды, количество и форму облачности, нижнюю и верхнюю границу облачности).

Рекомендуем: Кто готов сделать сайт интернет магазина люстры.

Погода в Балаганске - сегодня

Время (UTC), дата Ветер
(°,м/с) 
Видим.   Явления Облачность Т
(°С)
Тd
(°С)
f(%) Тe
(°С)
Pmin
(гПа)
dP
(гПа)
Po
(мм)
O2
(г/м3)
Тmin Tmax R s Состояние
почвы
00 21.10.17 180 (Ю) 20000 м    10/4 600 м кучево-дожд., средняя 
[Cb cap|Ac As]
+0.4 -1.2 89 +1  1022.9  0.4  728  293  -2    0.0     
03 21.10.17 180 (Ю) 20000 м    10/3 600 м средняя 
[Sc diur, vesp|Ac As]
+2.7 +0.4 85 +3  1023.4  0.9  728  290           
06 21.10.17 110 (В) 20000 м    9/9 600 м кучево-дожд. 
[Cb cap]
+3.5 +1.1 84 +1  1022.9  -0.3  728  289           
09 21.10.17 110 (В) 20000 м    6/1 600 м верхняя 
[Sc|Cs]
+6 +1.7 74 +4  1021.4  -0.9  727  286           
12 21.10.17 170 (Ю) н/о    6/1 600 м верхняя 
[Sc|Cs]
+3.4 +1.3 86 +4  1021.5  -0.4  727  289    +6       
15 21.10.17 110 (В) н/о    9/3 600 м верхняя 
[Sc|Cs]
+5.4 +0.9 73 +4  1019.8  -1.2  726  287           
18 21.10.17 120 (ЮВ) н/о    10/3 600 м верхняя 
[Sc|Cs]
+4.8 +0.6 74 +3  1018.7  -1.2  725  287           
21 21.10.17 140 (ЮВ) н/о    10/3 600 м средняя, верхняя 
[Sc|Ac trans|Cs]
+4 +0.2 76 +2  1018.4  -0.4  725  288           
00 22.10.17 140 (ЮВ) 20000 м  {ливн. осадки}  10/4 600 м кучево-дожд., средняя 
[Cb cap|Ac As]
+3 -0.3 79 +2  1018.7  725  289  +2.4    0.0     
03 22.10.17 140 (ЮВ) 20000 м    10/3 600 м средняя 
[Sc|Ac As]
+5.2 -0.3 68 +4  1018.5  0.3  725  287           
06 22.10.17 150 (ЮВ) 20000 м    10/0 средняя, верхняя 
[Ac lent|Cs]
+7.2 +0.2 61 +7  1017.2  -1  724  284           
09 22.10.17 100 (В) 20000 м    10/1 600 м средняя, верхняя 
[Sc|Ac lent|Cs]
+7.1 +3.3 77 +6  1015.6  -1.4  723  284           
12 22.10.17 тихо ()   н/о    8/1 600 м средняя, верхняя 
[Sc|Ac lent|Cs]
+3 +0.3 82 +3  1016  -0.4  723  288    +8.6       
15 22.10.17 230 (ЮЗ) н/о    6/1 600 м верхняя 
[Sc|Ci fib]
-0.8 -1.6 94 1015.2  -1.5  722  292           
18 22.10.17 260 (З) н/о    4/1 600 м верхняя 
[Sc|Ci fib]
-1.6 -2.3 95 -1  1014.8  -0.5  722  293           
21 22.10.17 270 (З) н/о    6/3 600 м верхняя 
[Sc|Cs]
-3.2 -3.6 97 -3  1014.9  -0.3  721  294           
00 23.10.17 210 (ЮЗ) 20000 м    9/3 600 м средняя, верхняя 
[Sc diur, vesp|Ac trans|Cs]
-3.5 -3.9 97 -3  1016  1.1  722  295  -3.8         
03 23.10.17 090 (В) 20000 м    10/3 600 м средняя, верхняя 
[Sc|Ac trans|Cs]
+2.7 +1.4 91 +2  1015.8  723  288           
06 23.10.17 310 (СЗ) 20000 м    10/4 600 м средняя 
[Sc diur, vesp|Ac As]
+5.7 +1.6 75 +5  1017.2  1.8  724  286           
09 23.10.17 340 (С) 6-10{12}  20000 м  слаб. ливневой дождь  10/5 600 м кучево-дожд., средняя 
[Cb cap|Ac As]
+4.3 +0.5 76 +2  1021.9  4.2  727  288           
12 23.10.17 270 (З) 3{11}  н/о  {ливн. осадки}  10/5 600 м кучево-дожд., средняя 
[Cb cap|Ac As]
+2.3 -1.5 76 +1  1025.8  3.4  730  292    +6.6  0.0     
15 23.10.17 260 (З) н/о  {ливн. осадки}  10/4 600 м кучево-дожд., средняя 
[Cb cap|Ac As]
+0.9 -0.5 90 -1  1028.4  2.2  732  294           
18 23.10.17 270 (З) н/о  {ливн. осадки}  10/3 600 м средняя, верхняя 
[Sc|Ac trans|Cs]
-0 -3.2 79 -1  1029.6  0.9  732  295           
21 23.10.17 250 (З) н/о    9/3 600 м верхняя 
[Sc|Cs]
-0.7 -4.1 78 1029.5  -0.2  732  296           
00 24.10.17 210 (ЮЗ) 20000 м    10/4 600 м кучево-дожд., средняя, верхняя 
[Cb cap|Ac trans|Cs]
-1.3 -3.4 86 -1  1030  -0.3  732  297  -1.3    0.0     
Время (UTC), дата Ветер
(°,м/с) 
Видим.   Явления Облачность Т
(°С)
Тd
(°С)
f(%) Тe
(°С)
Pmin
(гПа)
dP
(гПа)
Po
(мм)
O2
(г/м3)
Тmin Tmax R s Состояние
почвы

Для получения пояснительной информации подведите курсор к названию столбца.

ПОГОДА в Балаганске - архив

Всё, что Вы хотите узнать о погоде в Балаганске - удобно и подробно!

Выберите нужную дату (начиная с 1 января 2015* года) и нажмите кнопку "Найти".
Будут отображены архивные сводки погоды по пункту Балаганск, начиная с указанной даты.


Отображать данные в формате CSV (для использования в таблицах Excel)


Внимание! Наш архив погоды предназначен исключительно для личного некоммерческого использования в познавательных целях. Если Вам необходимы официальные справки о состоянии погоды (для производственных, юридических, коммерческих и т.п. целей), обращайтесь в органы Росгидромета.

*Примечание: данная дата относится к архиву по метеостанциям СССР (Россия, СНГ, Балтия).
Архив по метеостанциям Зарубежной Европы и Азии (кроме Китая) хранится 10 дней, по другим регионам земного шара (Китай, Африка, Америка, Австралия, Океания) - 1 день.

Балаганск - район местоположения метеостанции


Название, широта, долгота, высота метеостанции:
Балаганск 54°ш. 103.1°д. 427 м над ур. моря [Российская Федерация]

Дополнительная информация

В oтличие oт бoльшинства пoгoдных сайтoв мы публикуем пoдрoбную метеoинфoрмацию в детальнoм прoфессиoнальнoм фoрмате.

Характеристики температуры и влажнoсти вoздуха измеряются на высoте 2 м в тени вдали oт зданий и деревьев.
Скoрoсть ветра измеряется на высoте 10 м (на урoвне рoста челoвека скoрoсть ветра ниже в 1.5-2 раза). Если метеoстанция нахoдится в гoрoде или в лесу, тo скoрoсть ветра занижена на 2-4 м/с пo сравнению с oткрытым местoм. Скoрoсть ветра над акватoриями крупных рек и oзёр, а также на вершинах хoлмoв на 2-5 м/с выше, чем в oбычных услoвиях.
Атмoсфернoе давление в разных тoчках местнoсти мoжет значительнo oтличаться oт давления на метеoстанции, в зависимoсти oт услoвий рельефа (при пoдъёме на 10 м давление пoнижается примернo на 1 мм рт.ст.).